When you browse on this site, cookies collect data to enhance your experience and personalize the content and advertising you see.
Visit our Privacy Policy to learn more. By continuing to use the site, you agree to this use of cookies and data.
  • In Hungary
  • List of Countries
  • For 7 days
  • Water Temperature
  • Satellite Maps
  • Weather Map
  • News
  • Weather Widgets
  • user-avatar
    Login

    Hourly Weather Cluj-Napoca

    Today, 21 March, Thursday

    Time Temperature Precipitation Wind Pressure Humidity
    00:00 +5°C° 0 mm 1 mps 735 mmHg 77%
    01:00 +5°C° 0 mm 1 mps 736 mmHg 78%
    02:00 +5°C° 0 mm 1 mps 736 mmHg 80%
    03:00 +4°C° 0 mm 1 mps 736 mmHg 81%
    04:00 +4°C° 0 mm 1 mps 736 mmHg 82%
    05:00 +4°C° 0 mm 1 mps 736 mmHg 84%
    06:00 +4°C° 0 mm 1 mps 736 mmHg 81%
    07:00 +5°C° 0 mm 1 mps 736 mmHg 79%
    08:00 +5°C° 0 mm 1 mps 737 mmHg 77%
    09:00 +7°C° 0 mm 1 mps 737 mmHg 72%
    10:00 +9°C° 0 mm 1 mps 737 mmHg 66%
    11:00 +10°C° 0 mm 1 mps 737 mmHg 60%
    12:00 +10°C° 0 mm 2 mps 737 mmHg 55%
    13:00 +12°C° 0 mm 2 mps 737 mmHg 49%
    14:00 +13°C° 0 mm 2 mps 736 mmHg 44%
    15:00 +12°C° 0 mm 3 mps 736 mmHg 45%
    16:00 +11°C° 0 mm 3 mps 736 mmHg 46%
    17:00 +11°C° 0 mm 3 mps 735 mmHg 47%
    18:00 +9°C° 0 mm 3 mps 735 mmHg 52%
    19:00 +8°C° 0 mm 2 mps 736 mmHg 58%
    20:00 +6°C° 0 mm 2 mps 736 mmHg 63%
    21:00 +6°C° 0 mm 2 mps 736 mmHg 63%
    22:00 +6°C° 0 mm 2 mps 736 mmHg 63%
    23:00 +6°C° 0 mm 1 mps 736 mmHg 64%

    Tomorrow, 22 March, Friday

    Time Temperature Precipitation Wind Pressure Humidity
    00:00 +6°C° 0 mm 1 mps 736 mmHg 63%
    01:00 +6°C° 0 mm 1 mps 736 mmHg 62%
    02:00 +6°C° 0 mm 1 mps 736 mmHg 61%
    03:00 +5°C° 0 mm 1 mps 736 mmHg 61%
    04:00 +5°C° 0 mm 1 mps 736 mmHg 61%
    05:00 +5°C° 0 mm 1 mps 735 mmHg 60%
    06:00 +6°C° 0 mm 1 mps 736 mmHg 61%
    07:00 +6°C° 0 mm 1 mps 736 mmHg 61%
    08:00 +7°C° 0 mm 1 mps 736 mmHg 61%
    09:00 +8°C° 0 mm 2 mps 736 mmHg 60%
    10:00 +9°C° 0 mm 2 mps 736 mmHg 58%
    11:00 +11°C° 0 mm 3 mps 735 mmHg 56%
    12:00 +12°C° 0 mm 3 mps 735 mmHg 54%
    13:00 +12°C° 0 mm 3 mps 735 mmHg 51%
    14:00 +13°C° 0 mm 3 mps 734 mmHg 48%
    15:00 +13°C° 0 mm 3 mps 734 mmHg 51%
    16:00 +13°C° 0 mm 3 mps 734 mmHg 53%
    17:00 +13°C° 0 mm 3 mps 734 mmHg 56%
    18:00 +11°C° 0 mm 3 mps 734 mmHg 63%
    19:00 +10°C° 0 mm 2 mps 734 mmHg 71%
    20:00 +8°C° 0 mm 2 mps 734 mmHg 78%
    21:00 +8°C° 0 mm 2 mps 734 mmHg 79%
    22:00 +8°C° 0 mm 2 mps 734 mmHg 80%
    23:00 +8°C° 0 mm 1 mps 734 mmHg 82%

    Day after tomorrow, 23 March, Saturday

    Time Temperature Precipitation Wind Pressure Humidity
    00:00 +8°C° 0 mm 1 mps 734 mmHg 83%
    01:00 +8°C° 0 mm 1 mps 734 mmHg 84%
    02:00 +7°C° 0 mm 1 mps 734 mmHg 86%
    03:00 +7°C° 0 mm 1 mps 733 mmHg 86%
    04:00 +6°C° 0 mm 0 mps 733 mmHg 87%
    05:00 +6°C° 0 mm 0 mps 733 mmHg 88%
    06:00 +6°C° 0 mm 0 mps 733 mmHg 85%
    07:00 +7°C° 0 mm 0 mps 733 mmHg 82%
    08:00 +8°C° 0 mm 0 mps 733 mmHg 79%
    09:00 +11°C° 0 mm 1 mps 733 mmHg 73%
    10:00 +12°C° 0 mm 1 mps 733 mmHg 66%
    11:00 +14°C° 0 mm 1 mps 733 mmHg 60%
    12:00 +15°C° 0 mm 2 mps 732 mmHg 57%
    13:00 +16°C° 0 mm 2 mps 732 mmHg 53%
    14:00 +16°C° 0 mm 2 mps 732 mmHg 50%
    15:00 +16°C° 0 mm 3 mps 732 mmHg 51%
    16:00 +16°C° 0 mm 3 mps 731 mmHg 52%
    17:00 +16°C° 0 mm 3 mps 731 mmHg 52%
    18:00 +13°C° 0 mm 3 mps 731 mmHg 60%
    19:00 +13°C° 0 mm 2 mps 731 mmHg 68%
    20:00 +10°C° 0 mm 2 mps 731 mmHg 75%
    21:00 +10°C° 0 mm 2 mps 732 mmHg 76%
    22:00 +9°C° 0 mm 2 mps 732 mmHg 78%
    23:00 +10°C° 0 mm 1 mps 732 mmHg 79%

    24 March, Sunday

    Time Temperature Precipitation Wind Pressure Humidity
    00:00 +9°C° 0 mm 1 mps 732 mmHg 79%
    01:00 +9°C° 0 mm 1 mps 732 mmHg 79%
    02:00 +9°C° 0 mm 1 mps 732 mmHg 79%
    03:00 +8°C° 0 mm 1 mps 732 mmHg 80%
    04:00 +8°C° 0 mm 1 mps 731 mmHg 80%
    05:00 +7°C° 0 mm 0 mps 731 mmHg 81%
    06:00 +8°C° 0 mm 0 mps 731 mmHg 78%
    07:00 +8°C° 0 mm 0 mps 731 mmHg 75%
    08:00 +9°C° 0 mm 0 mps 732 mmHg 72%
    09:00 +11°C° 0 mm 0 mps 732 mmHg 66%
    10:00 +13°C° 0 mm 0 mps 731 mmHg 60%
    11:00 +14°C° 0 mm 0 mps 731 mmHg 55%
    12:00 +16°C° 0 mm 1 mps 731 mmHg 52%
    13:00 +18°C° 0 mm 1 mps 731 mmHg 49%
    14:00 +18°C° 0 mm 2 mps 730 mmHg 46%
    15:00 +18°C° 0 mm 2 mps 730 mmHg 47%
    16:00 +18°C° 0 mm 1 mps 729 mmHg 47%
    17:00 +18°C° 0 mm 1 mps 729 mmHg 48%
    18:00 +16°C° 0 mm 1 mps 729 mmHg 53%
    19:00 +14°C° 0 mm 1 mps 729 mmHg 59%
    20:00 +12°C° 0 mm 0 mps 729 mmHg 64%
    21:00 +11°C° 0 mm 0 mps 728 mmHg 66%
    22:00 +11°C° 0 mm 0 mps 728 mmHg 68%
    23:00 +10°C° 0 mm 0 mps 728 mmHg 70%

    25 March, Monday

    Time Temperature Precipitation Wind Pressure Humidity
    00:00 +10°C° 0 mm 0 mps 728 mmHg 72%
    01:00 +11°C° 0 mm 1 mps 727 mmHg 73%
    02:00 +10°C° 0 mm 1 mps 727 mmHg 74%
    03:00 +10°C° 0 mm 1 mps 727 mmHg 76%
    04:00 +10°C° 0 mm 1 mps 726 mmHg 77%
    05:00 +9°C° 0 mm 1 mps 726 mmHg 78%
    06:00 +10°C° 0 mm 1 mps 726 mmHg 75%
    07:00 +11°C° 0 mm 1 mps 725 mmHg 72%
    08:00 +11°C° 0 mm 1 mps 725 mmHg 70%
    09:00 +13°C° 0.1 mm 2 mps 725 mmHg 62%
    10:00 +15°C° 0.1 mm 2 mps 725 mmHg 55%
    11:00 +17°C° 0.1 mm 3 mps 725 mmHg 48%
    12:00 +17°C° 0.2 mm 4 mps 724 mmHg 47%
    13:00 +16°C° 0.2 mm 5 mps 724 mmHg 47%
    14:00 +17°C° 0.2 mm 5 mps 723 mmHg 46%
    15:00 +16°C° 0.4 mm 6 mps 723 mmHg 51%
    16:00 +15°C° 0.4 mm 6 mps 723 mmHg 55%
    17:00 +14°C° 0.4 mm 6 mps 722 mmHg 59%
    18:00 +12°C° 0 mm 5 mps 722 mmHg 66%
    19:00 +11°C° 0 mm 4 mps 722 mmHg 73%
    20:00 +9°C° 0 mm 3 mps 723 mmHg 80%
    21:00 +9°C° 0 mm 3 mps 723 mmHg 79%
    22:00 +8°C° 0 mm 3 mps 723 mmHg 78%
    23:00 +8°C° 0 mm 3 mps 723 mmHg 77%

    26 March, Tuesday

    Time Temperature Precipitation Wind Pressure Humidity
    00:00 +6°C° 0 mm 4 mps 723 mmHg 73%
    01:00 +6°C° 0 mm 4 mps 723 mmHg 69%
    02:00 +5°C° 0 mm 5 mps 723 mmHg 65%
    03:00 +4°C° 0 mm 4 mps 723 mmHg 67%
    04:00 +4°C° 0 mm 4 mps 723 mmHg 69%
    05:00 +3°C° 0 mm 3 mps 723 mmHg 71%
    06:00 +3°C° 0 mm 3 mps 723 mmHg 68%
    07:00 +4°C° 0 mm 3 mps 723 mmHg 65%
    08:00 +4°C° 0 mm 3 mps 723 mmHg 63%
    09:00 +4°C° 0 mm 4 mps 723 mmHg 61%
    10:00 +5°C° 0 mm 4 mps 723 mmHg 59%
    11:00 +5°C° 0 mm 4 mps 723 mmHg 57%
    12:00 +5°C° 0.1 mm 5 mps 723 mmHg 57%
    13:00 +4°C° 0.1 mm 6 mps 722 mmHg 56%
    14:00 +3°C° 0.1 mm 7 mps 722 mmHg 56%
    15:00 +2°C° 0.3 mm 7 mps 722 mmHg 63%
    16:00 -1°C° 0.3 mm 6 mps 723 mmHg 70%
    17:00 -2°C° 0.3 mm 5 mps 723 mmHg 77%
    18:00 -3°C° 0.4 mm 6 mps 724 mmHg 74%
    19:00 -3°C° 0.4 mm 6 mps 724 mmHg 71%
    20:00 -3°C° 0.4 mm 6 mps 725 mmHg 68%
    21:00 -4°C° 0 mm 6 mps 726 mmHg 66%
    22:00 -5°C° 0 mm 6 mps 726 mmHg 65%
    23:00 -6°C° 0 mm 6 mps 726 mmHg 63%
    Show more